Theta_e
312 314 316 317 318 321 321 321 319 317 317 318 320 322 319 317 317 316 316 315 315 316 315 317 318 317 320 320 321 325 329 331 332 333 334 333 333 333 333 334 335 336 335 329 327 328 327 328 332 331 329 329 329 329 329 328 328 326 321 317 318 324 324 317 313 314 318 320 319 317 317 318 320 323 323 321 322 325 326 328 328 328 329 329 329 328
312 314 317 319 320 323 323 324 323 320 320 322 321 320 317 317 317 316 319 317 320 324 317 318 322 319 323 324 322 328 332 331 331 332 332 334 333 332 332 332 333 333 332 329 327 328 329 332 333 331 330 329 329 330 329 328 328 323 315 311 313 316 315 311 312 314 315 316 315 316 317 318 318 319 320 320 321 321 321 324 327 328 328 328 328 327
315 317 318 319 318 318 321 325 326 325 324 321 319 319 318 317 318 319 324 323 324 328 319 319 323 321 329 330 323 329 333 330 331 332 332 333 333 331 332 331 331 330 329 327 326 329 333 333 332 331 331 330 329 330 328 327 326 319 313 311 311 311 311 312 314 315 315 316 317 319 320 320 318 317 318 319 320 319 317 318 322 325 326 327 326 324
316 319 318 316 315 318 323 324 327 330 327 323 318 316 317 317 317 319 325 328 328 325 319 322 327 327 330 328 322 325 330 330 330 331 332 332 332 332 331 331 330 329 328 326 326 330 333 333 332 331 330 329 330 329 326 324 320 315 312 311 310 311 312 314 316 318 319 320 321 322 322 322 319 316 316 314 314 316 316 313 313 317 319 321 322 321
316 317 316 317 318 321 322 319 328 331 326 332 327 316 317 318 317 317 322 332 336 333 329 327 328 336 335 325 322 322 325 331 330 329 331 331 331 331 331 331 328 328 327 326 329 332 333 332 332 331 330 329 329 328 323 319 316 313 312 311 310 312 315 317 319 319 320 322 323 322 322 322 321 321 318 314 311 311 311 309 308 310 313 316 319 321
316 314 315 320 320 321 320 318 329 330 321 329 334 326 321 319 319 321 324 332 335 332 333 324 322 338 342 326 323 323 323 329 329 329 330 329 331 331 331 332 329 328 328 328 330 331 332 332 332 331 330 329 328 327 321 315 315 314 313 312 310 312 318 320 320 319 319 321 321 320 320 319 320 321 317 311 311 309 306 306 306 307 311 315 317 319
317 314 316 325 325 322 323 319 324 329 321 319 331 333 326 321 321 322 322 324 326 324 327 325 320 332 338 330 328 325 322 325 324 327 329 327 329 330 331 332 331 330 330 331 332 331 332 332 331 331 330 329 328 327 321 315 315 314 314 313 311 313 317 319 320 319 318 319 320 319 318 316 318 318 311 307 308 308 306 307 307 307 311 315 317 317
320 316 317 325 326 321 322 320 322 329 321 320 334 334 323 320 319 323 323 320 323 324 326 330 323 323 329 329 328 322 319 321 321 323 326 326 328 329 331 331 331 331 330 331 332 333 332 331 331 331 330 329 329 328 324 318 316 314 315 315 312 312 314 317 319 319 318 317 318 320 318 317 318 315 309 307 308 307 307 307 307 308 311 315 318 318
322 319 319 322 322 319 321 324 326 324 317 323 337 330 320 319 320 326 325 320 325 322 322 332 324 318 329 334 328 322 319 323 323 322 322 325 327 329 330 331 331 331 331 331 331 332 332 331 331 330 329 330 329 329 328 324 320 316 315 315 314 312 313 316 319 319 317 316 316 318 319 320 319 313 308 308 308 307 307 306 306 307 309 313 317 317
320 317 319 320 322 323 325 326 324 322 320 325 328 321 319 322 324 327 324 324 331 322 322 335 327 316 329 339 330 322 320 323 325 322 320 323 326 329 330 330 331 330 330 330 329 330 331 330 330 330 329 329 328 329 329 328 327 322 318 317 316 313 312 315 320 318 314 314 316 317 320 320 315 311 309 309 307 306 307 306 306 307 307 309 312 314
317 315 316 318 320 323 324 320 317 318 319 321 320 319 323 327 329 334 333 329 326 322 327 334 327 318 325 335 333 324 321 323 323 322 321 322 325 328 330 329 330 330 330 330 329 329 330 330 330 330 329 328 328 330 329 329 329 328 325 322 318 316 313 313 319 318 312 313 314 317 320 317 311 310 310 308 307 307 307 306 306 306 306 306 307 309
320 315 316 318 316 317 317 315 315 314 315 318 320 321 325 328 331 337 338 327 319 325 332 330 326 323 323 330 333 329 325 323 322 322 324 325 326 328 329 329 330 330 330 329 329 329 329 329 329 330 329 328 328 329 330 330 330 330 329 327 323 321 316 312 317 319 313 312 314 315 315 312 309 310 309 307 308 307 306 306 306 306 306 306 306 306
327 321 316 316 316 315 315 315 316 315 317 318 320 323 322 320 322 329 331 325 322 327 328 325 323 322 325 330 328 325 324 321 319 320 322 324 325 326 328 329 329 330 329 328 328 329 328 328 328 328 328 328 328 329 330 331 331 331 331 330 329 326 323 320 321 322 316 311 313 312 310 310 310 310 308 308 308 307 306 306 305 306 306 306 306 305
326 326 319 315 316 315 315 317 316 316 317 314 316 322 323 319 319 324 326 324 325 327 327 325 323 322 326 328 325 323 321 317 316 317 320 322 324 325 327 328 328 328 328 327 327 328 328 328 328 327 327 327 327 329 330 331 333 333 333 334 332 327 325 324 323 323 318 312 312 310 310 312 311 310 309 308 308 307 306 306 306 306 306 306 306 306
320 324 324 318 317 316 314 316 318 319 318 316 317 318 320 324 324 324 325 325 324 327 328 325 323 326 326 324 323 322 317 316 317 319 322 323 325 326 326 326 326 326 327 327 327 327 327 327 327 327 327 327 327 327 329 331 333 334 334 335 332 326 325 324 321 320 318 313 311 311 313 314 312 311 310 308 308 307 306 307 306 306 306 306 306 306
316 320 326 319 314 314 314 313 315 317 318 318 317 315 315 323 328 324 324 330 329 325 325 323 325 329 329 326 323 319 316 318 320 322 324 325 325 326 325 325 325 324 325 325 326 326 326 326 326 326 326 326 327 326 327 328 330 331 332 332 331 328 326 324 321 321 319 315 311 311 315 317 316 314 311 308 308 308 307 307 306 307 307 306 306 306
315 320 324 317 312 314 313 313 313 312 318 320 314 315 317 318 324 324 321 326 328 324 324 323 322 324 324 323 321 319 319 319 320 322 322 324 325 325 326 326 324 324 323 322 323 324 325 326 326 327 327 327 328 327 325 325 325 326 328 328 329 328 327 325 323 322 320 318 312 311 317 318 318 318 313 309 309 309 309 308 308 307 307 307 307 307
320 321 321 316 313 315 312 313 314 311 316 320 313 316 320 315 322 331 325 321 319 321 326 323 320 321 321 322 325 323 319 317 320 323 321 322 324 324 326 326 325 325 324 323 324 325 325 326 326 328 329 329 330 330 327 326 325 326 327 328 328 327 328 326 325 323 322 319 313 312 317 317 316 319 318 313 311 311 311 311 311 310 308 307 307 307
322 318 319 318 314 314 314 314 317 316 315 316 314 317 319 317 322 327 323 321 318 319 323 321 320 320 318 322 326 322 319 317 318 321 322 322 322 322 324 325 325 326 325 325 325 325 325 325 326 327 328 329 329 330 330 329 329 329 329 329 327 327 327 326 325 325 322 318 313 313 318 316 315 319 319 317 315 313 313 314 314 314 312 310 308 308
323 319 321 322 314 313 319 318 317 317 315 315 316 316 317 321 324 321 318 321 321 319 321 321 321 322 324 325 322 319 321 321 320 322 323 321 321 322 323 323 324 324 325 325 324 325 325 325 325 325 326 327 327 328 328 329 328 328 328 327 325 326 328 327 326 326 323 317 312 315 319 317 317 320 319 319 318 315 315 317 316 315 315 314 311 310
323 318 320 325 319 315 319 317 313 313 313 314 317 316 316 319 320 318 317 320 322 322 323 322 321 326 334 329 320 318 321 322 324 325 323 321 322 323 322 322 322 322 323 324 324 325 325 325 325 325 325 326 326 327 327 327 327 327 327 326 324 326 327 327 326 325 323 318 313 316 319 317 318 320 319 319 319 318 317 318 318 317 316 316 314 313
321 320 322 325 321 317 318 314 310 311 311 311 312 314 318 321 320 319 319 320 324 325 325 325 322 325 332 327 320 321 323 322 323 323 322 321 322 323 323 323 322 321 321 323 324 324 324 325 325 325 325 325 325 326 326 326 327 326 327 326 324 325 325 325 325 325 324 319 316 317 319 318 319 319 319 319 319 319 319 318 319 318 318 318 317 315
323 327 324 320 317 315 313 311 310 311 312 313 312 314 318 322 326 328 324 323 324 320 321 326 322 323 329 326 321 321 321 321 320 321 321 321 322 323 323 323 322 320 319 320 322 324 323 324 324 324 325 325 325 325 324 326 326 326 326 326 326 325 325 325 325 325 324 320 320 321 320 319 319 318 318 319 318 319 320 319 319 320 320 320 319 318
322 324 317 317 322 321 315 313 313 312 313 316 316 317 317 316 323 330 328 329 327 316 317 322 317 319 327 322 317 317 318 319 320 320 321 319 321 323 322 322 322 320 320 320 322 322 323 323 323 323 324 324 324 325 324 325 325 326 326 326 326 326 326 326 325 323 321 320 322 322 319 320 320 318 319 319 317 318 320 320 320 320 320 321 320 319
318 319 320 322 324 323 321 321 320 315 314 315 315 316 315 314 321 325 323 330 327 315 320 326 319 319 324 318 316 318 319 319 318 318 320 319 320 322 322 323 322 320 319 319 317 317 317 317 317 319 322 324 324 324 324 325 325 326 326 325 326 326 325 325 323 321 321 321 322 322 319 320 319 318 319 320 318 319 320 320 320 320 321 321 321 320
319 323 331 330 320 317 322 323 318 312 313 316 314 314 315 315 319 320 321 328 325 315 321 328 323 322 322 317 318 320 320 320 318 317 319 319 319 320 321 321 320 319 317 316 315 314 313 313 312 314 319 322 323 323 324 324 325 325 326 325 326 326 325 324 322 322 321 321 320 321 321 321 319 318 320 319 319 320 319 319 320 321 321 321 320 320
321 321 330 334 326 322 323 320 314 310 311 313 312 312 316 317 318 319 321 324 322 319 323 325 323 322 317 314 317 320 321 322 320 318 318 318 319 318 318 318 317 318 317 316 317 315 314 313 312 312 314 316 318 320 321 323 323 324 325 325 325 325 325 324 323 322 321 321 321 321 322 322 320 320 319 318 320 320 318 318 320 321 321 320 320 320
322 315 318 324 323 318 316 312 310 309 309 309 310 312 316 318 320 319 316 316 317 319 321 320 320 318 314 313 316 317 319 321 320 317 316 318 318 317 316 317 316 317 317 317 317 316 315 314 313 313 313 312 313 313 315 318 319 320 321 322 323 324 324 324 324 322 322 322 323 322 321 320 320 319 319 319 320 320 319 319 320 321 321 321 320 320
323 317 312 314 314 312 311 311 310 310 309 309 311 313 314 317 319 316 312 313 315 317 316 315 315 314 312 312 314 313 314 316 316 316 317 317 317 316 316 316 316 316 316 316 317 317 316 314 314 313 313 313 312 312 311 313 314 314 314 315 317 318 320 321 322 322 322 322 322 321 320 320 320 320 319 320 320 319 319 318 318 319 320 321 320 319
319 319 313 313 315 313 311 311 310 310 310 310 311 312 314 316 317 315 312 314 316 314 313 314 314 312 309 309 311 311 310 311 312 313 314 314 315 316 316 316 316 316 315 315 315 315 314 314 314 313 313 313 313 313 312 311 311 311 310 310 311 312 313 314 314 316 317 318 319 319 319 320 320 319 319 319 319 319 318 318 318 318 319 320 320 319
316 316 316 320 321 315 312 311 310 310 312 312 312 313 315 315 314 314 313 315 317 312 310 315 316 312 308 306 307 308 309 310 310 309 310 311 312 314 314 314 315 315 316 315 314 314 314 313 313 313 314 313 313 314 314 313 313 312 310 310 311 311 310 310 310 310 310 311 312 314 316 317 317 316 317 318 318 317 317 317 317 318 318 318 318 316
317 316 317 323 321 314 312 312 311 312 315 316 314 314 316 314 311 310 309 311 313 312 312 317 316 311 308 305 305 306 307 308 307 307 309 310 311 311 311 312 313 313 315 315 315 314 313 313 313 312 313 313 313 313 313 313 313 312 310 309 311 312 311 311 310 310 309 308 309 311 312 313 314 314 314 314 314 314 315 315 315 316 316 316 315 315
319 318 316 320 320 314 311 313 316 317 318 317 314 312 312 311 309 308 307 306 308 311 314 315 311 307 306 306 306 306 305 305 305 305 307 309 311 311 311 311 312 312 313 314 315 315 314 313 312 311 311 312 312 312 312 312 312 312 310 309 310 311 310 310 310 310 309 308 309 310 311 311 311 311 312 314 314 314 315 316 316 316 316 315 315 315
319 320 316 318 318 311 310 316 320 317 313 312 312 311 309 308 307 307 306 305 306 308 309 308 306 305 305 305 306 306 305 305 305 304 306 307 308 309 310 311 311 311 312 313 313 314 313 312 311 309 309 309 309 310 311 311 311 310 309 309 309 309 309 308 308 309 308 308 307 308 309 310 309 308 310 312 312 312 314 315 316 316 315 314 314 314
315 316 313 317 319 312 311 317 316 312 310 309 309 309 307 305 305 305 304 304 305 306 306 305 305 305 304 303 304 305 304 304 304 304 305 305 305 306 307 308 310 311 311 312 312 312 311 310 310 309 308 308 308 308 309 310 310 309 309 309 308 308 308 307 308 308 308 307 307 307 308 308 308 307 308 309 309 310 311 312 312 313 313 313 313 314
316 316 312 313 315 311 310 313 313 310 309 309 309 308 307 307 308 309 307 304 304 305 305 305 305 303 302 302 303 304 305 304 303 303 303 303 303 304 304 305 307 309 309 309 310 310 309 309 309 308 308 307 307 307 308 309 309 309 308 308 308 308 307 307 307 308 308 308 307 307 307 307 307 307 308 308 308 308 308 308 308 309 310 311 312 313
315 317 313 310 311 313 311 310 311 309 306 307 309 307 306 306 309 311 308 304 303 303 303 304 305 302 301 302 303 304 305 305 303 303 302 302 303 303 303 303 304 305 306 306 306 306 306 307 308 309 308 307 306 307 308 308 308 308 308 308 308 308 307 307 307 307 307 307 307 307 307 307 307 308 308 308 308 308 305 304 303 304 304 305 305 305
309 312 312 308 309 314 314 310 309 308 306 307 308 306 304 303 304 307 309 306 303 302 301 302 303 301 300 302 302 302 304 306 305 303 301 302 303 303 303 303 302 302 303 303 303 303 304 305 306 307 307 306 306 306 307 306 306 307 307 308 308 308 308 308 307 307 307 307 307 307 306 306 307 308 308 308 308 306 303 302 302 302 301 301 301 300
308 310 314 312 309 312 314 312 310 309 307 307 307 305 304 302 302 306 309 306 302 301 300 300 301 300 300 301 301 302 304 306 305 303 301 301 302 302 302 302 302 302 302 302 302 302 302 303 303 304 304 304 305 306 306 306 305 306 306 307 307 308 308 307 307 307 307 307 306 306 306 306 307 308 308 308 307 306 305 304 303 303 302 302 301 301
310 313 315 313 310 311 313 312 309 308 306 306 306 305 302 301 304 307 309 305 301 300 300 300 299 299 300 300 300 301 303 303 303 301 300 300 300 301 301 301 301 302 302 301 301 301 301 302 302 302 303 303 304 305 305 305 305 305 305 306 306 307 307 307 307 307 307 307 306 306 306 306 307 307 307 307 307 307 306 305 303 303 302 302 302 302
311 312 311 310 309 310 311 308 306 306 306 305 305 303 300 303 308 309 306 303 300 299 299 299 299 299 299 299 299 300 300 300 299 299 299 299 300 300 299 300 300 300 300 300 300 300 301 301 301 301 302 302 303 303 303 303 304 304 305 305 305 305 305 306 306 306 306 306 306 306 306 306 306 306 306 306 306 305 305 304 303 303 303 303 303 303
308 310 310 309 308 309 309 308 305 305 304 303 302 301 300 305 308 305 302 300 299 299 299 298 299 299 298 299 298 298 299 298 298 298 298 299 299 299 299 299 299 299 300 299 299 299 300 300 300 300 300 301 301 302 302 302 302 303 303 303 304 304 304 305 305 305 305 305 305 305 305 305 306 306 305 305 305 304 304 304 305 305 305 304 304 304
304 308 309 307 306 307 307 306 304 303 302 301 302 301 301 303 302 300 299 299 299 299 299 298 299 299 299 299 298 298 298 298 298 298 298 298 298 299 299 299 298 299 299 299 299 299 298 299 299 299 299 300 300 300 301 301 301 302 303 303 303 303 303 303 304 304 304 304 305 305 305 305 305 305 305 305 304 304 304 305 305 305 305 305 305 305
302 305 306 305 305 306 305 304 303 302 300 299 300 300 299 300 299 298 299 299 298 299 299 299 299 299 299 299 298 298 298 298 298 299 298 298 298 298 298 298 298 298 298 298 298 298 298 299 299 299 299 299 299 300 300 300 300 300 301 302 302 302 302 303 303 302 303 303 304 304 304 305 305 305 305 305 305 305 305 305 305 305 305 305 305 305
300 301 302 302 301 301 301 301 301 300 298 298 299 299 298 299 299 298 299 298 298 299 299 299 299 299 299 299 298 298 299 298 299 299 298 299 298 298 299 298 298 298 298 298 298 298 298 299 299 299 299 299 299 299 299 299 299 299 300 300 301 302 302 302 302 302 302 302 303 303 303 304 304 304 305 305 304 305 305 305 304 304 304 304 304 303
298 299 300 300 299 298 298 298 298 298 298 298 299 298 298 299 298 298 299 299 299 299 299 299 299 298 298 298 298 298 298 298 298 298 298 299 298 298 298 298 298 299 299 298 299 299 298 298 298 299 299 299 299 299 299 299 299 300 300 300 300 301 301 301 302 302 302 302 302 302 303 303 304 304 304 304 304 304 304 304 304 303 303 303 303 303
299 299 301 301 301 301 299 297 297 298 298 298 299 298 298 299 298 299 299 298 299 299 298 298 298 298 298 298 298 298 298 298 298 298 298 298 298 298 299 299 298 299 299 299 299 299 299 299 299 299 299 299 299 299 298 299 299 300 300 300 300 301 301 301 302 302 302 302 302 302 303 303 303 303 303 303 303 303 304 304 304 303 304 304 304 304
299 300 301 300 301 301 299 297 297 298 298 298 299 298 298 299 298 298 298 298 298 298 298 298 298 298 298 297 297 298 298 298 298 298 298 298 298 298 299 299 299 299 299 299 299 299 299 299 299 299 299 299 299 298 298 299 299 299 299 299 300 300 301 301 301 301 302 302 302 302 302 303 303 303 303 303 303 304 303 303 304 304 304 304 304 304
298 299 299 299 301 300 299 298 298 299 298 298 298 298 298 298 298 298 298 298 298 297 298 297 297 297 297 297 297 297 297 297 297 297 297 298 298 298 298 298 298 298 299 299 299 299 299 299 299 299 299 299 299 299 299 299 298 298 299 299 299 299 300 300 300 301 301 302 302 302 302 302 302 302 302 303 303 303 303 303 303 304 304 304 304 304
299 299 298 301 303 301 298 298 299 300 300 299 298 298 298 298 298 298 298 298 297 297 297 297 297 297 296 296 296 297 297 297 296 296 296 297 297 297 297 297 297 298 298 298 299 299 299 299 299 299 299 299 299 298 298 298 298 298 298 298 298 299 299 299 300 300 300 300 301 302 302 302 302 302 302 302 302 302 302 302 302 303 303 303 304 304
299 298 299 301 302 300 298 298 298 299 299 298 298 298 298 298 298 298 297 297 297 297 297 296 296 296 296 295 295 295 295 295 295 295 295 295 295 295 295 295 296 296 296 297 297 298 298 298 299 299 299 299 299 299 298 298 298 298 298 298 298 299 299 299 299 299 300 300 300 300 301 301 302 302 302 301 301 301 302 302 303 303 303 303 304 305
Wind_Speed
4 2 2 4 6 7 7 8 9 7 7 7 2 2 3 2 5 7 8 7 5 9 5 7 6 3 2 3 5 9 12 16 20 20 22 27 30 32 34 35 37 37 35 33 35 35 30 25 24 25 28 28 26 24 23 25 24 22 22 22 22 23 22 20 18 17 16 16 14 12 11 10 8 8 6 5 6 6 7 8 9 10 11 12 11 10
3 4 6 9 10 10 9 8 7 5 5 3 1 1 3 1 5 8 5 6 4 6 1 1 7 6 3 5 4 13 11 10 18 20 21 27 29 31 34 35 35 34 33 33 34 33 27 24 24 26 29 29 27 24 23 23 22 21 22 23 24 24 22 20 18 17 16 14 10 9 9 9 7 6 6 5 5 6 7 8 9 10 11 11 11 9
1 4 11 13 10 6 6 5 5 5 2 1 1 1 4 3 4 7 5 7 6 5 1 1 5 5 6 5 5 15 15 15 24 29 30 31 28 28 32 34 34 31 31 33 33 31 27 24 24 26 30 29 27 24 23 23 23 24 25 24 24 23 21 19 17 17 16 13 10 9 9 9 8 7 7 6 6 6 5 7 8 9 10 10 9 9
2 6 12 12 7 5 5 5 3 1 2 1 1 1 3 2 1 4 7 7 5 3 2 1 1 2 4 3 2 12 18 20 25 28 32 35 34 33 35 36 36 34 34 35 33 32 30 27 25 26 31 30 27 24 23 24 27 28 27 24 23 22 20 19 18 18 17 14 12 10 11 10 9 8 7 6 6 6 5 6 7 8 9 10 10 10
6 10 9 5 6 8 5 4 3 4 3 3 3 3 3 2 3 4 6 6 6 4 2 5 5 5 3 4 1 4 11 16 19 19 22 27 28 30 34 37 38 37 38 39 36 36 35 31 27 27 31 30 27 25 24 27 31 29 26 24 22 21 21 20 19 18 17 16 15 14 14 13 12 11 9 8 8 7 6 7 7 7 8 10 12 10
9 15 11 3 5 8 7 5 4 4 0 4 4 6 6 4 5 6 5 4 6 5 3 5 4 6 4 3 3 2 3 9 13 14 18 22 20 21 28 34 37 37 38 39 39 39 38 33 28 28 30 30 29 26 25 30 31 29 26 23 22 23 23 21 19 17 16 16 17 16 16 15 15 14 12 11 12 11 10 9 8 8 7 8 10 9
6 12 9 5 6 7 7 5 5 6 5 2 5 6 6 5 4 5 3 1 2 2 4 3 4 4 6 5 5 1 5 8 9 9 13 21 22 22 26 31 35 37 37 37 37 38 38 34 31 30 30 30 29 26 26 30 30 28 25 22 23 24 24 22 20 18 16 15 15 14 12 12 12 12 12 13 14 14 13 12 10 9 8 8 9 8
4 4 4 5 5 6 5 4 5 6 7 3 6 5 5 3 3 3 4 3 2 3 4 4 5 2 4 5 5 2 3 4 7 9 10 17 23 25 26 30 36 38 37 37 36 35 37 35 33 31 31 30 29 27 26 29 30 29 26 23 23 25 24 23 21 19 16 13 12 12 11 11 11 11 12 14 14 13 13 13 11 10 10 10 9 8
2 1 5 5 4 4 3 6 6 6 5 7 7 4 4 3 5 5 6 3 1 2 4 5 3 2 4 6 5 3 1 3 5 9 10 15 23 26 27 30 33 35 37 36 35 36 37 36 34 32 31 30 28 28 27 28 29 29 28 26 24 25 25 23 22 20 16 12 11 10 12 12 13 14 14 14 13 12 12 11 10 9 10 10 10 9
4 7 10 7 5 4 6 7 6 7 4 7 4 3 2 2 3 4 6 3 3 4 3 6 1 1 4 5 5 4 3 5 4 3 8 18 25 25 24 25 26 30 34 34 32 34 36 37 36 32 31 31 29 29 28 28 28 29 30 28 27 27 26 24 24 21 16 13 12 12 14 15 16 17 16 14 13 11 10 10 10 10 9 10 10 10
7 9 7 6 5 6 6 5 5 7 6 3 1 1 3 6 4 3 4 4 4 2 5 6 1 3 1 5 4 2 2 2 3 3 4 14 22 23 22 23 25 28 31 31 30 32 34 36 35 32 30 30 31 30 30 30 29 29 30 30 30 29 27 26 26 23 18 16 15 15 17 18 19 19 17 14 12 11 10 10 10 10 10 10 10 10
6 4 3 4 6 6 4 1 2 2 2 2 3 3 3 4 5 5 5 4 3 2 6 6 1 6 2 5 4 5 5 2 7 6 6 10 17 21 23 24 26 27 28 28 28 30 31 32 33 32 31 30 31 32 32 32 31 31 31 31 32 32 31 29 28 24 19 17 17 17 17 19 20 19 15 12 11 11 11 11 10 11 11 11 10 10
5 3 4 3 4 5 5 1 4 5 4 4 3 5 5 2 3 3 3 2 1 4 4 5 1 3 2 6 5 7 7 2 3 5 12 16 19 22 24 25 26 25 25 26 26 27 28 29 30 32 33 32 32 33 34 34 33 33 33 33 33 33 32 30 28 24 19 17 17 17 18 20 20 17 14 11 10 11 11 11 11 11 11 11 11 11
3 5 5 2 2 3 6 3 2 3 2 3 2 3 4 2 2 1 3 1 1 3 4 4 0 1 3 4 5 7 5 4 7 8 14 21 24 25 25 26 25 22 22 23 24 24 24 25 27 29 31 33 32 33 34 35 34 34 33 34 34 31 26 25 24 20 17 16 17 17 19 20 18 17 15 12 11 12 12 12 12 12 12 12 11 11
1 4 3 2 2 3 6 5 6 4 2 3 4 5 4 4 4 3 3 2 3 3 5 4 2 2 2 3 4 4 6 13 19 18 18 21 22 25 26 25 25 22 20 20 21 22 21 19 20 22 24 26 28 30 33 34 35 35 34 35 34 29 25 24 24 23 20 19 19 19 20 19 17 16 16 14 13 13 14 14 14 14 13 13 13 13
3 3 6 4 4 5 5 4 6 6 2 3 2 5 2 5 5 2 3 5 4 1 2 2 1 3 4 3 2 8 10 14 21 22 22 21 20 23 24 23 23 21 20 19 18 19 18 15 15 16 16 17 19 23 27 30 32 32 33 35 34 32 31 30 30 30 27 25 23 23 22 20 17 16 17 17 16 14 15 16 15 15 15 14 15 14
2 4 7 5 2 2 3 5 6 6 2 2 2 1 4 5 7 4 2 1 4 3 2 1 2 4 2 1 3 8 9 9 14 18 20 20 21 23 22 21 21 19 18 17 16 15 13 12 12 12 12 12 14 18 22 25 27 27 29 32 33 32 32 32 33 32 31 29 27 25 23 21 19 18 18 18 18 16 16 16 15 15 15 15 15 15
3 2 6 4 4 5 9 4 2 4 5 3 1 3 1 3 4 4 2 2 4 2 3 2 2 2 2 1 4 6 5 5 6 11 15 18 22 23 21 22 21 19 19 17 16 14 12 11 10 9 8 7 8 11 15 18 20 22 23 26 29 30 31 34 34 30 30 30 27 26 26 22 21 20 18 18 18 17 17 16 15 16 15 15 15 15
4 1 6 4 2 6 10 6 3 4 2 4 3 3 3 3 1 1 2 1 1 2 3 3 0 1 1 2 4 5 1 3 5 4 7 11 17 22 23 24 22 20 19 17 15 13 12 11 10 9 7 6 6 7 8 10 12 15 18 21 24 26 28 32 32 28 28 28 26 28 28 25 22 21 19 18 17 17 17 16 15 16 15 14 15 15
3 3 3 6 3 3 6 5 3 6 6 3 2 2 2 3 3 2 2 3 3 2 2 2 2 1 3 4 3 4 5 6 6 3 2 4 11 20 24 23 21 18 16 14 12 11 10 9 9 9 8 7 7 8 9 9 9 10 12 15 16 19 26 30 30 27 27 28 29 29 28 26 24 22 21 19 18 17 17 15 15 14 13 13 13 13
3 3 3 6 5 3 2 1 3 2 5 5 4 3 1 2 2 1 1 1 4 4 2 1 1 3 4 3 3 3 4 7 9 6 3 4 8 14 20 21 18 16 14 12 11 10 9 9 9 9 9 8 8 8 10 9 9 8 8 11 13 18 26 29 27 26 26 27 29 29 29 28 25 22 22 21 18 17 16 14 13 13 11 11 10 10
2 2 3 2 3 2 3 3 2 2 2 1 1 2 1 3 3 3 1 3 2 4 3 4 2 5 5 3 3 2 4 6 11 12 7 8 11 14 17 18 16 14 11 10 10 10 9 9 9 9 9 9 8 8 9 9 9 9 9 12 15 19 22 22 23 25 25 27 29 29 30 29 25 24 23 22 20 19 18 17 15 13 13 12 11 10
2 3 3 0 1 2 5 4 2 3 2 4 3 3 2 2 3 5 3 3 0 1 1 4 3 4 5 4 4 4 5 9 15 17 13 13 15 16 17 15 12 11 10 10 10 10 9 8 8 8 7 7 7 7 8 8 9 9 10 12 15 17 18 20 23 26 26 28 30 30 31 29 26 26 25 24 23 22 22 21 18 17 16 14 13 12
2 4 3 2 3 4 4 1 4 6 6 5 4 4 4 2 1 4 5 3 2 1 1 3 2 3 5 5 1 3 5 9 12 15 16 16 16 18 18 14 12 11 11 10 10 9 7 6 5 6 7 7 7 7 8 9 10 11 11 11 12 14 16 20 24 26 28 31 32 31 31 29 27 27 27 26 25 24 24 22 20 20 18 16 15 14
1 1 3 3 3 6 6 5 5 6 5 2 2 3 4 4 4 3 1 3 3 1 3 5 2 3 4 4 3 8 9 10 12 14 18 18 18 19 18 15 12 11 10 9 9 8 7 5 4 5 6 7 7 7 9 11 13 13 12 10 10 13 17 20 21 24 29 32 32 30 30 29 27 27 28 29 27 25 23 20 20 21 20 19 19 17
2 2 3 4 2 0 1 2 2 3 3 2 2 4 4 5 6 4 2 4 2 1 2 5 4 4 3 4 5 8 9 9 11 16 19 19 19 19 16 15 12 10 10 9 9 9 9 8 7 6 6 6 6 7 8 11 13 14 14 12 11 15 20 21 20 22 26 28 28 28 28 28 27 26 27 28 27 25 21 20 23 23 22 22 21 19
4 2 3 6 6 4 4 4 3 1 3 3 5 7 5 4 5 5 4 3 3 1 2 2 5 3 2 5 3 5 9 9 8 13 17 17 18 17 14 14 12 11 11 10 9 9 8 9 9 8 7 6 6 6 6 8 10 13 15 14 13 15 17 19 19 20 21 22 23 25 24 24 26 26 26 27 27 26 22 23 26 25 24 24 22 21
5 2 1 5 5 5 5 2 2 2 2 3 5 7 5 4 5 7 5 1 4 4 2 4 3 5 3 7 5 2 4 7 7 13 19 20 20 18 14 13 13 13 12 11 10 10 8 9 9 8 7 6 7 7 6 7 9 10 12 14 14 14 14 15 17 17 19 20 19 19 19 20 22 23 24 26 27 25 24 25 27 25 23 23 21 21
5 1 2 3 3 2 3 2 4 5 4 3 5 6 5 4 6 7 3 0 4 6 2 1 7 6 4 7 7 6 2 5 6 9 14 15 15 14 11 10 11 12 12 12 13 12 10 9 9 9 9 7 7 7 7 7 8 8 9 12 13 14 14 14 15 16 17 18 17 17 16 17 18 19 21 23 25 24 25 26 26 24 23 22 20 20
4 1 1 4 4 3 4 5 6 7 6 5 7 6 4 5 7 7 4 3 7 7 4 5 10 7 4 6 7 8 9 15 17 15 12 11 9 8 8 8 9 11 11 11 13 14 12 10 10 10 11 10 8 7 7 7 7 6 8 11 12 13 13 12 12 13 14 14 14 15 16 17 17 17 18 20 21 21 21 22 23 23 23 21 20 20
3 1 1 4 4 4 4 6 7 7 7 7 8 9 6 6 7 6 4 4 6 6 4 7 9 6 6 8 9 13 17 20 21 20 19 18 15 12 9 5 4 7 11 11 12 13 11 10 10 11 12 13 11 9 7 7 6 6 7 9 11 12 13 12 11 11 11 11 11 12 14 15 15 14 14 15 16 16 16 18 19 19 18 17 17 18
3 1 2 5 4 3 2 5 6 5 8 8 8 10 9 6 6 5 5 5 3 5 4 7 7 3 7 8 11 17 20 20 18 17 18 20 19 17 14 10 6 2 8 10 10 11 9 8 9 10 12 14 13 11 9 8 7 5 6 9 10 11 12 12 12 12 11 11 11 11 11 12 12 12 11 11 11 12 12 13 13 14 14 14 14 14
3 3 1 3 3 3 4 4 5 6 7 5 4 6 5 3 7 7 8 9 6 4 5 4 3 2 6 6 9 12 14 16 17 18 17 18 20 19 17 15 12 6 1 6 9 11 10 9 8 8 9 11 11 12 11 10 9 7 6 9 10 10 10 10 11 11 10 9 11 12 11 12 12 12 12 12 12 11 11 12 12 12 12 12 11 11
2 5 2 2 4 2 5 4 6 4 2 3 5 4 0 7 12 11 7 8 8 6 5 4 2 2 4 6 7 7 9 14 19 23 22 20 21 22 20 19 16 13 10 6 7 7 8 9 8 8 9 9 7 8 10 12 12 10 8 9 10 9 10 10 10 11 10 8 9 11 11 13 13 12 12 13 13 12 12 12 12 12 11 11 11 11
2 4 2 1 4 2 2 5 5 1 4 5 3 2 5 12 16 14 9 8 8 7 6 6 4 5 6 8 8 5 10 17 24 26 25 23 23 23 23 20 17 14 13 10 7 8 10 10 10 10 11 10 7 5 9 11 12 11 10 10 10 8 8 9 9 10 10 9 8 10 12 13 13 13 14 14 14 14 13 12 12 12 12 11 11 11
5 4 3 2 3 2 1 4 2 4 3 1 2 3 5 6 8 11 9 8 7 5 5 5 5 7 9 13 14 7 8 14 24 26 23 22 22 22 23 22 18 15 13 12 8 4 6 5 2 3 7 8 7 4 8 9 8 9 8 8 9 7 7 8 7 8 10 10 9 10 12 12 12 14 16 17 16 16 15 15 15 15 14 14 13 13
7 4 3 2 2 3 4 3 2 1 1 1 3 2 1 1 1 4 5 3 5 5 5 4 4 8 10 14 18 10 2 6 16 19 19 20 18 18 18 19 19 17 15 14 14 11 5 3 5 4 3 1 4 2 5 6 2 4 6 7 9 8 8 8 7 6 7 9 10 10 11 12 12 13 15 16 15 15 14 14 14 14 13 13 12 12
5 4 5 5 2 3 5 2 1 2 4 4 3 5 4 5 3 5 6 2 4 6 7 5 4 7 9 12 17 15 6 4 5 9 15 17 15 14 14 13 15 16 15 15 15 14 13 10 6 4 5 6 8 8 4 1 2 3 4 6 8 9 9 10 9 7 7 7 8 10 11 12 12 13 14 15 14 13 11 9 9 9 9 8 8 8
6 2 4 4 2 3 5 3 3 4 4 4 5 7 11 12 5 4 6 2 5 8 9 5 5 7 7 8 12 12 9 4 3 6 13 15 14 14 13 12 12 12 12 14 15 13 13 13 9 5 5 5 7 11 12 8 6 6 6 7 8 9 11 10 8 8 8 7 7 7 8 11 12 12 13 13 13 12 10 8 8 8 7 7 6 6
7 4 4 4 2 1 4 3 1 2 1 3 5 8 13 13 5 5 4 2 5 9 11 9 9 11 10 10 10 8 5 2 4 8 13 14 13 13 14 14 15 15 14 14 15 13 13 13 11 8 7 6 6 9 11 10 9 8 8 9 11 12 13 13 12 10 8 7 7 6 6 8 10 10 10 10 11 11 11 12 12 11 9 9 10 10
4 3 3 3 2 2 3 4 1 0 0 3 5 9 13 9 4 4 3 4 3 10 13 14 14 14 14 14 12 7 4 5 8 11 13 13 13 13 14 15 16 18 18 18 18 17 16 15 15 14 13 11 10 10 10 10 9 8 8 10 12 15 15 16 16 15 14 12 11 9 9 9 9 9 10 10 11 13 14 15 14 13 13 13 14 14
3 2 2 2 2 2 2 3 2 1 2 6 6 11 12 5 3 1 1 5 9 11 13 14 14 13 14 13 12 10 10 10 10 12 12 13 14 15 15 16 17 19 22 23 22 20 19 19 18 18 18 16 16 15 14 14 14 12 11 11 12 13 14 14 15 16 16 16 15 14 13 12 12 12 12 12 13 15 16 15 14 15 16 17 17 18
1 1 2 1 1 2 2 3 3 1 4 5 4 8 10 5 3 1 5 10 12 12 13 13 12 12 13 13 13 14 14 13 13 14 14 14 15 16 18 18 19 20 22 24 24 23 21 20 20 19 20 20 20 20 18 18 18 17 16 16 14 13 13 14 14 15 15 16 16 15 13 14 14 15 15 14 15 16 17 16 16 16 17 18 19 20
3 1 1 1 1 2 2 2 2 1 6 11 10 5 5 7 6 6 8 10 11 11 12 11 11 11 12 12 14 15 16 16 16 17 18 18 18 19 20 21 22 22 22 23 23 23 22 22 22 21 20 20 20 21 21 21 20 20 20 20 18 16 16 17 17 17 17 17 18 18 17 17 17 17 17 17 17 18 19 18 18 18 18 19 20 22
3 1 2 2 3 4 3 3 5 7 13 19 19 14 11 11 10 10 9 10 10 10 9 9 9 10 11 12 13 14 14 16 17 18 19 20 21 22 23 23 24 25 26 26 26 25 25 26 26 25 23 22 20 21 21 21 21 22 23 22 21 21 21 20 19 19 20 20 20 19 20 20 21 21 21 20 20 21 21 21 21 21 21 22 22 23
4 4 3 3 4 6 7 8 8 11 13 15 15 14 14 13 11 10 9 8 8 6 6 6 8 10 12 12 14 15 16 17 18 19 20 21 22 23 23 25 25 25 26 27 27 27 28 29 30 30 29 27 26 24 23 21 19 19 19 19 20 21 23 23 21 19 19 20 20 19 19 20 21 21 22 22 22 23 22 21 21 21 22 22 23 24
5 7 5 2 2 4 4 5 3 7 12 14 13 13 15 14 11 10 8 6 5 4 4 7 8 11 13 14 15 17 18 19 20 21 22 22 23 24 24 25 25 24 24 24 24 24 25 27 30 32 32 32 31 30 29 26 21 16 15 15 15 15 17 20 19 18 18 18 18 18 18 19 19 19 20 21 22 22 22 22 22 22 21 22 22 24
3 5 3 2 3 3 4 1 2 5 9 14 15 14 15 13 9 8 6 4 5 6 7 9 11 12 14 15 16 16 18 19 19 20 21 21 22 23 23 24 25 25 25 24 23 22 24 26 29 30 32 33 34 33 33 33 29 24 22 20 18 16 16 16 17 17 17 18 18 18 17 17 18 18 19 20 21 23 24 24 24 24 23 22 23 23
2 3 1 1 3 3 1 4 8 2 2 11 17 15 13 12 9 8 7 7 8 9 10 12 12 13 15 16 15 15 16 18 18 18 19 21 21 22 23 23 24 25 25 25 25 24 25 26 28 29 30 31 32 32 33 35 35 33 31 29 27 24 21 20 20 20 19 18 19 19 19 19 19 19 20 21 22 23 24 24 23 23 23 23 22 21
3 1 1 2 3 2 2 3 5 2 2 9 15 13 11 10 9 9 10 10 11 12 13 14 15 16 17 16 14 14 16 18 19 20 21 23 23 24 25 26 26 27 27 27 27 28 28 28 28 29 30 31 31 31 32 33 35 35 34 33 32 31 28 26 25 25 25 24 22 21 21 21 22 21 21 21 21 22 23 24 23 22 21 21 19 18
4 3 2 3 3 3 3 1 3 2 2 5 9 9 9 9 10 11 11 11 12 12 13 15 17 18 18 16 13 14 17 20 22 24 26 27 28 29 30 31 32 33 33 32 31 31 31 31 31 31 33 33 33 32 33 34 34 33 33 32 32 32 32 31 29 28 29 28 28 27 25 23 23 22 22 23 22 21 21 23 23 22 21 21 20 19
Wind_Direction
185 189 255 223 223 227 226 206 207 229 233 236 213 167 210 237 282 289 299 300 126 132 198 194 153 137 237 245 161 148 149 143 143 150 154 157 163 168 171 174 177 179 180 178 176 177 173 166 168 169 168 170 172 172 173 173 176 182 183 185 191 192 195 196 191 189 191 193 195 197 196 193 196 197 194 184 180 188 191 193 198 203 212 216 212 206
148 188 240 229 221 218 226 225 210 221 233 233 92 2 311 267 287 293 300 331 50 107 307 57 111 124 202 258 181 139 140 163 157 155 162 165 169 174 174 175 179 182 184 183 182 179 171 165 171 174 174 178 183 184 188 189 187 188 186 187 189 188 189 188 183 184 186 189 189 187 185 183 191 206 222 223 196 188 190 188 188 191 201 206 203 198
103 226 244 235 223 217 249 249 203 200 177 62 27 349 308 283 297 303 307 345 26 91 356 319 138 182 227 256 202 159 160 182 174 167 170 170 172 177 176 176 178 180 183 186 185 178 171 172 175 178 181 186 192 194 198 200 194 188 185 186 185 182 181 178 176 176 177 181 187 187 184 186 190 193 208 225 213 203 202 195 193 198 204 206 209 211
218 240 244 237 209 176 249 248 162 84 43 46 286 265 281 267 101 302 310 337 4 81 130 162 110 266 273 316 205 175 168 175 181 178 173 174 177 180 179 178 177 179 182 185 183 177 176 180 179 180 186 190 195 200 201 197 190 185 186 186 184 180 176 171 168 168 171 176 184 191 189 191 195 186 191 208 212 217 224 219 212 211 209 203 204 211
238 253 259 254 204 177 204 239 134 74 358 289 238 210 231 205 171 244 295 331 348 3 75 80 25 325 336 34 352 195 166 171 184 183 177 181 184 183 181 178 176 179 181 181 179 178 181 184 183 183 188 192 197 201 199 191 187 185 187 187 184 179 172 170 170 170 172 175 182 191 189 188 189 184 193 208 206 203 212 223 221 216 202 187 188 193
250 257 260 259 206 181 178 220 199 141 40 311 252 217 217 186 198 251 303 10 30 349 320 76 45 298 326 7 292 316 137 177 189 185 183 187 191 188 184 180 177 178 181 181 180 180 182 185 185 185 189 194 199 201 197 190 188 187 188 187 184 181 177 177 177 176 179 183 188 194 192 193 193 189 194 203 200 190 187 196 201 207 203 192 194 197
253 251 231 174 165 162 158 197 214 150 118 303 247 209 198 166 175 232 258 51 82 271 282 75 122 257 320 322 283 297 145 178 199 204 192 186 192 195 189 183 179 179 182 184 183 181 182 186 188 187 189 195 198 199 197 194 192 191 191 190 188 188 188 188 185 184 188 191 197 203 205 206 207 201 188 184 184 177 173 177 184 194 202 207 213 216
267 268 191 156 145 137 146 195 213 146 120 231 243 195 190 161 135 173 136 133 219 243 313 13 104 161 299 287 275 274 154 174 192 203 205 194 194 195 191 186 181 181 183 184 185 183 183 187 191 189 190 195 198 198 199 199 198 196 196 196 195 195 198 197 192 189 191 197 204 210 216 217 221 216 190 173 168 163 162 167 175 187 198 208 216 222
267 231 191 170 121 127 181 216 202 143 137 243 242 203 227 202 161 146 103 106 303 1 321 323 64 116 270 279 301 334 8 288 223 185 189 199 198 196 192 187 183 182 184 185 187 188 188 189 192 194 193 193 197 200 203 204 204 204 204 203 201 201 203 203 198 193 190 197 207 217 222 219 219 213 188 169 163 161 160 159 161 172 187 200 209 212
261 238 210 157 124 184 217 224 186 146 187 247 236 211 290 25 130 108 90 94 39 49 261 278 339 119 267 288 315 356 15 287 263 163 181 192 193 195 191 183 179 180 183 186 189 191 193 193 193 196 197 196 199 203 205 208 210 210 210 210 207 206 207 206 204 197 187 193 205 217 223 221 216 203 183 169 167 163 160 153 150 154 160 172 186 191
285 267 223 155 166 197 195 215 194 171 204 252 327 299 5 13 15 45 73 85 59 15 258 262 212 121 271 288 277 277 298 239 161 100 180 178 175 182 182 176 176 179 183 187 190 193 195 195 195 196 198 199 200 204 208 211 213 215 216 216 215 212 210 208 208 200 187 189 203 213 220 222 214 198 182 174 170 163 159 154 149 148 147 149 156 170
326 307 231 194 200 175 126 247 262 205 179 64 54 87 57 355 2 17 3 44 83 250 263 268 246 106 140 273 263 264 290 229 159 147 145 148 154 162 165 167 173 179 183 187 191 195 196 196 198 200 202 203 203 206 210 213 216 219 220 221 221 220 215 210 208 203 189 187 198 208 217 219 209 195 187 181 169 164 162 154 150 151 151 150 145 148
334 270 261 269 213 164 110 11 320 345 42 76 65 77 83 356 10 13 317 354 178 236 250 258 297 90 212 249 255 288 308 281 180 151 142 143 144 148 154 163 172 178 182 187 192 196 199 200 202 204 205 207 208 209 212 214 217 220 222 224 223 219 212 203 199 200 194 189 196 206 212 210 202 195 193 188 173 166 160 152 150 150 147 149 146 141
324 304 302 340 295 172 132 124 256 307 44 126 169 110 115 118 78 275 271 300 254 264 275 271 77 52 287 270 261 295 317 115 101 86 121 134 138 142 149 159 166 173 179 186 192 194 198 203 205 207 209 211 214 213 213 213 214 217 220 221 216 207 197 188 189 197 200 198 199 206 207 198 192 196 196 191 182 171 161 153 150 147 141 139 141 142
148 317 284 203 262 191 151 161 178 169 128 182 172 132 138 148 144 200 216 195 224 264 295 314 38 144 218 271 289 344 40 97 97 86 94 106 120 132 136 143 149 154 160 171 181 184 188 192 197 203 209 215 219 218 215 213 212 214 218 221 219 214 210 205 206 209 207 206 204 204 203 193 188 199 200 194 189 175 164 161 156 153 146 138 137 140
143 254 254 244 241 179 161 189 163 114 60 265 123 98 157 179 154 164 178 178 174 158 307 314 246 211 199 247 5 73 80 95 101 98 94 94 102 112 117 124 132 139 146 156 165 171 177 178 184 195 203 214 223 225 222 218 218 219 222 226 228 229 229 227 225 220 211 206 202 199 202 198 196 207 205 198 193 179 169 168 165 162 155 144 137 137
117 254 275 316 334 169 199 215 169 123 146 275 50 111 227 173 131 123 192 200 97 101 286 262 236 296 339 321 11 76 96 105 113 114 110 111 111 106 108 115 121 130 139 148 156 160 167 168 176 192 202 217 226 227 226 224 226 229 230 231 232 235 235 232 230 223 212 204 198 196 201 199 201 214 215 204 197 185 173 170 170 169 166 156 144 138
134 256 288 357 39 325 322 311 164 132 133 120 135 206 203 64 85 107 124 358 51 110 268 271 199 319 30 221 328 20 68 83 101 122 123 124 122 118 121 125 126 131 134 140 146 145 145 145 150 165 179 196 205 212 219 221 224 229 229 230 234 240 241 237 233 223 209 201 194 195 201 199 200 214 221 211 203 194 182 175 174 176 174 166 154 146
120 94 294 332 46 321 341 19 22 341 67 126 175 177 96 79 4 57 116 152 111 172 269 302 55 81 152 232 320 346 7 71 48 88 123 131 133 132 134 134 136 137 137 138 140 138 137 132 132 140 151 160 156 159 183 195 205 215 221 227 235 240 240 238 231 218 206 200 195 196 201 200 199 209 218 215 210 203 193 186 185 183 179 173 165 157
98 113 269 305 335 342 355 40 39 328 338 23 41 23 56 135 161 159 147 152 141 163 233 309 13 328 235 241 267 252 203 135 93 48 31 106 133 136 136 137 141 142 138 136 133 132 133 129 127 130 142 162 161 149 151 161 177 196 210 221 229 229 225 224 221 214 207 202 201 201 202 202 200 205 212 214 215 211 202 197 197 195 192 185 176 168
54 93 203 291 331 33 9 9 58 356 332 351 354 341 7 100 113 126 110 97 119 135 174 131 28 284 250 248 260 215 157 128 119 111 78 96 122 132 133 134 137 138 137 138 135 133 133 128 122 121 129 149 161 157 152 155 169 179 186 199 208 213 213 211 207 207 206 202 204 207 207 206 202 201 206 211 215 215 208 206 209 210 211 209 202 190
78 116 159 290 349 57 230 252 15 345 261 230 304 299 147 128 115 110 358 317 98 126 165 146 147 269 259 256 260 181 131 121 122 123 122 123 125 130 133 132 128 126 132 144 144 142 140 129 120 120 125 139 151 157 157 157 163 163 163 178 192 206 214 211 203 207 213 208 207 212 210 207 203 201 204 210 213 214 212 213 216 218 222 226 225 214
122 103 96 123 228 230 247 236 62 26 71 106 51 9 53 90 104 123 172 259 17 85 175 117 107 264 269 283 262 204 151 125 124 130 132 127 127 129 129 126 116 112 120 137 148 152 151 139 127 123 124 135 138 137 143 149 152 154 156 168 184 198 210 214 211 214 216 209 207 211 208 204 205 205 206 211 213 213 211 211 215 221 225 228 228 222
55 83 65 321 293 304 302 321 54 36 48 63 16 7 42 33 81 140 169 175 119 4 167 100 89 252 285 310 295 135 106 95 103 122 128 122 122 126 127 123 115 113 115 127 142 153 157 154 147 134 125 124 123 119 124 130 138 144 150 163 183 197 203 207 208 206 203 202 206 211 207 205 206 206 207 210 211 211 208 206 211 220 226 230 231 229
30 101 84 52 359 343 345 354 4 8 26 49 318 353 39 29 32 58 42 69 80 219 152 121 152 223 282 315 76 90 78 71 74 99 115 115 115 123 128 127 125 125 124 127 132 130 129 133 133 138 140 131 121 117 117 123 133 141 146 158 182 197 202 202 199 195 195 199 205 209 209 208 208 209 210 210 210 210 209 207 211 217 224 230 233 234
104 128 103 106 130 252 309 289 299 329 344 337 332 357 22 32 43 59 37 54 83 249 97 115 174 220 292 348 74 91 88 82 79 96 110 116 120 125 129 131 135 140 141 142 136 124 115 110 101 103 129 146 142 134 126 125 131 139 144 153 172 191 198 196 191 194 200 203 206 210 212 211 212 214 213 211 210 209 212 217 217 217 221 227 232 236
89 79 106 125 150 177 191 217 247 334 7 338 336 349 360 20 50 83 84 85 145 105 32 187 175 155 6 9 56 118 120 117 113 115 121 127 132 135 137 140 148 155 158 159 152 142 131 120 110 101 108 127 139 144 146 142 138 139 144 151 163 182 193 194 193 199 206 207 208 213 215 212 213 215 215 216 213 210 216 222 217 215 220 225 231 237
85 52 124 121 138 181 182 211 310 22 44 350 346 350 352 10 47 75 77 165 158 103 342 289 87 86 358 342 335 269 154 140 147 144 144 148 148 149 152 156 162 168 174 180 177 172 160 142 131 123 121 122 125 132 143 149 148 146 147 151 161 173 184 192 197 203 206 209 212 215 218 216 214 216 221 223 219 217 224 226 221 223 227 228 230 233
104 128 194 119 107 133 116 54 25 51 62 39 25 360 350 32 75 87 75 273 128 119 211 248 79 73 336 335 335 316 346 97 104 132 147 151 151 155 162 169 171 172 176 180 182 183 181 173 160 150 152 151 136 134 140 146 147 144 146 150 157 166 176 184 191 198 204 211 217 219 220 218 214 216 223 225 224 226 229 230 229 231 233 235 237 236
93 160 205 108 87 39 40 47 46 51 49 41 31 10 17 78 89 87 73 62 87 103 156 124 91 70 358 327 324 348 48 79 79 81 92 94 106 135 152 168 179 183 181 174 171 172 173 178 181 179 179 177 169 162 156 152 150 143 146 150 150 153 161 168 178 188 196 204 211 216 219 218 216 219 224 226 227 227 225 226 229 230 233 241 245 244
66 189 235 91 70 343 359 50 52 60 73 60 26 4 17 62 63 53 36 34 68 82 83 84 81 53 356 339 356 30 57 70 68 64 64 65 73 87 91 103 168 201 199 187 174 170 165 163 171 179 181 178 177 177 170 160 156 145 141 152 154 150 150 155 164 173 179 182 188 197 204 207 209 214 220 220 220 221 221 224 229 233 238 243 242 241
69 88 344 71 76 299 323 56 51 63 74 58 23 357 359 36 64 58 25 18 75 122 86 60 65 24 322 341 32 51 56 57 51 47 52 58 63 68 69 66 62 195 216 214 202 188 174 154 147 155 167 171 174 178 179 178 176 167 146 149 160 159 151 153 158 162 165 168 171 176 179 182 186 191 197 200 201 204 208 213 219 225 229 230 230 230
101 101 52 86 97 285 306 55 66 60 51 25 338 330 334 68 86 68 32 17 29 104 106 84 103 255 301 347 47 56 55 56 51 45 49 56 60 64 68 64 59 58 192 225 216 204 192 174 140 118 134 157 170 176 179 180 182 185 169 155 160 163 158 158 160 160 163 169 173 175 172 169 173 178 183 184 183 185 189 194 198 203 210 217 222 225
85 104 127 123 116 256 293 26 57 51 43 257 273 303 35 107 91 77 48 17 20 49 88 112 126 327 343 22 48 59 69 70 63 58 58 58 58 59 61 62 63 67 75 114 172 179 176 172 154 121 109 112 131 158 166 170 172 172 170 166 164 166 168 172 172 171 173 179 183 184 181 178 181 188 191 189 188 189 191 194 197 201 208 217 224 228
122 122 150 112 116 184 302 47 58 271 217 208 257 358 100 110 100 90 70 32 28 41 58 64 37 359 14 31 37 75 95 77 67 64 62 55 52 52 51 51 54 58 64 82 125 150 148 143 137 132 122 97 77 112 146 159 167 167 168 173 173 172 175 178 180 182 187 192 189 186 189 190 192 198 200 197 197 197 198 202 205 208 215 221 226 230
140 144 161 135 125 151 95 83 140 222 207 157 337 16 88 97 86 80 60 22 9 18 43 50 18 360 15 24 29 62 120 80 60 58 55 49 46 47 46 45 46 46 49 51 58 115 159 164 132 115 117 87 51 81 142 150 168 179 182 187 189 192 192 188 187 188 193 199 198 193 197 200 201 203 202 202 204 208 213 220 222 222 225 228 231 236
140 136 156 174 177 144 138 156 181 187 173 12 341 337 79 358 321 104 96 31 344 357 27 43 10 2 12 19 23 28 125 80 50 41 38 37 37 39 42 43 43 42 41 37 34 36 35 319 291 285 251 295 358 356 149 131 136 195 189 188 190 192 195 197 195 190 193 202 206 206 208 209 210 211 209 207 210 217 223 221 217 218 221 223 227 235
140 160 172 183 204 108 113 143 142 162 208 233 272 279 304 321 277 153 120 79 322 347 21 52 33 4 8 16 18 17 25 57 32 12 18 19 14 17 26 31 34 34 31 25 20 21 21 9 353 325 290 295 321 316 281 223 341 276 214 196 193 193 195 198 201 202 207 214 213 214 220 222 226 230 228 224 225 228 227 219 217 221 220 220 229 235
58 91 134 142 157 111 115 143 168 177 210 240 258 285 322 333 318 122 94 49 306 333 357 24 29 8 4 11 16 24 39 48 309 333 6 6 353 352 355 357 5 9 10 9 5 7 10 3 358 353 328 312 306 298 286 278 282 278 261 242 233 224 212 207 210 212 213 216 213 213 218 218 220 227 232 236 239 237 238 250 263 260 247 249 263 268
30 29 59 79 87 126 124 125 142 163 196 248 257 295 326 334 349 87 102 252 298 347 2 16 27 26 24 26 32 48 67 52 306 335 360 0 350 346 341 337 338 337 336 340 340 342 349 349 343 333 321 309 293 291 291 286 278 271 262 255 256 253 239 229 230 230 228 225 218 215 219 213 210 215 222 229 234 237 248 265 272 272 272 278 284 286
15 18 48 85 76 37 94 104 109 152 264 267 286 326 336 341 40 91 183 235 347 24 34 43 44 39 33 32 36 34 16 360 346 345 350 346 340 342 340 331 324 319 318 320 322 322 321 322 324 320 312 306 301 299 300 297 285 267 256 254 256 258 256 250 246 244 245 247 244 243 243 235 227 227 226 228 238 250 261 270 275 279 285 288 289 290
14 8 25 66 44 16 78 111 118 102 308 280 302 357 9 33 103 111 129 69 46 37 36 37 39 33 22 17 14 1 349 346 339 335 334 329 323 322 322 322 318 311 308 307 308 311 310 307 309 309 304 301 297 296 299 300 292 279 268 264 257 253 254 253 252 251 251 253 255 254 253 251 251 250 246 244 251 258 262 267 272 276 281 284 286 287
359 8 28 19 6 33 57 71 105 120 332 324 333 6 22 71 136 107 70 62 46 32 23 21 26 24 11 358 350 340 333 327 321 318 316 313 311 308 305 307 309 306 303 302 300 301 301 300 300 299 296 294 291 289 290 291 289 284 277 271 265 260 256 252 250 252 252 252 254 256 256 256 257 258 257 256 257 259 259 262 267 270 273 276 277 280
360 31 87 302 328 70 61 46 116 139 40 60 85 90 76 87 82 63 60 49 35 27 17 11 11 10 0 348 337 329 323 320 316 313 310 306 303 301 298 297 297 295 294 292 291 292 293 292 292 292 289 287 286 284 282 282 283 283 280 276 272 267 264 263 262 260 257 254 253 255 257 258 258 257 259 260 259 258 257 259 261 263 265 269 273 277
334 312 127 79 66 87 84 61 94 98 76 78 89 93 86 76 60 52 52 39 28 25 15 6 359 350 343 338 333 327 324 322 317 314 313 310 304 301 298 295 293 291 290 288 286 286 286 285 285 286 285 284 282 281 280 281 283 283 281 279 276 271 267 268 268 266 261 257 255 255 255 256 255 256 258 259 259 259 260 261 261 261 263 268 272 275
351 5 58 98 101 87 59 42 67 89 84 84 87 75 60 56 48 43 44 35 29 26 10 355 343 333 329 329 326 322 320 319 314 310 309 307 304 301 298 295 293 291 291 290 289 288 286 283 281 280 279 279 280 280 280 280 281 284 283 281 276 272 269 265 263 260 257 252 250 251 253 253 253 253 255 258 259 260 261 262 262 262 263 265 267 269
3 25 48 82 99 96 69 16 30 93 79 67 64 49 37 39 42 38 40 40 31 9 338 330 327 324 321 320 319 316 312 311 310 308 306 304 301 299 297 296 296 296 294 293 293 292 289 285 281 279 278 276 276 277 279 277 272 271 276 280 279 273 265 258 252 246 244 244 244 245 245 247 249 252 256 258 259 259 260 261 263 264 265 265 264 264
340 22 45 56 35 108 152 310 348 124 94 50 38 31 25 28 33 32 31 19 351 338 328 325 322 319 318 318 318 317 312 311 310 308 305 304 300 298 297 296 296 296 293 291 290 288 286 284 282 281 280 278 276 276 277 276 272 265 263 268 272 269 262 256 250 242 238 236 235 234 235 236 238 243 248 254 258 261 263 263 264 266 267 268 268 267
355 18 35 97 43 58 151 353 5 81 109 16 19 22 21 21 21 12 2 346 338 336 328 324 323 321 322 321 320 317 312 309 307 305 303 302 300 299 298 295 291 289 287 284 283 281 280 281 281 280 280 279 279 278 277 275 273 268 264 263 265 266 264 260 257 255 251 244 236 234 236 239 242 245 247 251 257 261 263 264 264 265 267 270 273 272
49 42 6 72 56 29 243 323 15 65 263 340 3 13 13 9 3 353 347 343 342 338 329 324 323 320 319 319 315 310 306 303 302 301 299 299 299 298 296 294 291 288 284 281 278 275 274 273 273 273 273 274 276 278 278 277 275 272 268 265 264 265 265 262 259 259 259 256 250 245 242 242 245 247 247 249 253 258 261 262 262 262 265 269 272 269
90 131 124 122 156 198 210 170 63 100 224 332 1 4 355 348 345 344 344 341 337 332 328 325 322 318 317 316 313 308 305 302 301 300 298 297 295 293 292 291 290 288 286 284 281 278 275 272 270 269 269 269 271 272 273 274 274 273 272 270 267 265 264 262 261 259 258 258 258 256 253 252 251 248 247 249 252 255 258 258 257 259 263 264 260 256